Find Starlink 5278

NORAD ID: 54164 Int'l Des: 2022-141 Owner: SPXS Country: US Constellation: starlink operational
LEOCIRCULAR

当前视图

正在加载3D地球...

About Starlink 5278

Starlink 5278 (NORAD 54164) is a starlink constellation satellite (v1.5) launched Oct 28, 2022 by SPXS of US. It operates in LEO, CIRCULAR orbit with a mass of 305.00 kg.

关于 Starlink 5278

正在加载描述...

即将过境

Passes for default location (London). Set your location on the main map for personalized predictions.

高度历史

Loading altitude history...

两行轨道根数

1 54164U 22141H 26171.41668980 .00006283 00000-0 38617-3 0 9996
2 54164 53.1591 263.0375 0001522 133.4563 209.6988 15.11270695 5821
Epoch: Jun 20, 2026 • Age: 8 hours

当前状态

高度 534.7 km
速度 7.60 km/s
星下点 33.89°N, 109.49°E
发射日期 Oct 28, 2022
运行时间 3.6 years
类型 internet

技术详情

分类 Payload
质量 305.00 kg
干质量 290.00 kg
总质量 305.00 kg
长度 0.20 m
直径 2.80 m
跨度 9.00 m
形状 Box + pan
制造商 SPXS
平台类型 Starlink
阶段状态 In Orbit
所有者/国家 SPXS/US

Most Searched